Location: Frankfurt+am+Main
(50.1100°N, 8.4815°E)
Time: 19:34:04
(UTC+01:00)

ISS - Pass Details

Date: 13 November 2017
Orbit: 402 x 407 km, 51.6° (Epoch: 24 November)

Event Time Altitude Azimuth Distance (km) Brightness Sun altitude
Exits shadow 05:02:31 34° 96° (E) 693 -2.1 -24.5°
Drops below altitude 10° 05:04:29 10° 100° (E) 1,455 0.0 -24.2°
Sets 05:06:34 0° 102° (ESE) 2,313 1.3 -23.9°
